Regional Weather Roundup
Issued by NWS

Home | Current Version | Previous Version | Text Only | Print | Product List | Glossary Off
Versions: 1 2 3 4 5 6 7 8 9 10 11 12 13 14 15 16 17 18 19 20 21 22 23 24 25 26 27 28 29 30 31 32 33 34 35 36 37 38 39 40 41 42 43 44 45 46 47 48 49 50

000
ASUS43 KLOT 181110
RWRIL

ILLINOIS REGIONAL WEATHER ROUNDUP
NATIONAL WEATHER SERVICE CHICAGO/ROMEOVILLE IL
500 AM CST THU DEC 18 2014

NOTE: "FAIR" INDICATES FEW OR NO CLOUDS BELOW 12,000 FEET WITH NO
SIGNIFICANT WEATHER AND/OR OBSTRUCTIONS TO VISIBILITY.

* THESE STATIONS ARE NOT UNDER NWS QUALITY CONTROL. THEY ALSO MAY NOT
  REPORT WEATHER SUCH AS PRECIPITATION OR FOG.

ILZ001-002-007-009-015-016-024-181200-
NORTHWEST ILLINOIS

CITY           SKY/WX    TMP DP  RH WIND       PRES   REMARKS
MOLINE         MOCLDY    20  16  84 CALM      30.29S
STERLING*      MOCLDY    18  12  79 CALM      30.28S
SAVANNA*       MOCLDY    16  14  90 CALM      30.29S
$$

ILZ003-004-008-010-011-017-018-181200-
NORTH CENTRAL ILLINOIS

CITY           SKY/WX    TMP DP  RH WIND       PRES   REMARKS
ROCKFORD       CLEAR     19  13  77 N6        30.29F WCI  11
FREEPORT*      PTCLDY    14  12  90 SW3       30.29R
ROCHELLE*      CLOUDY    21  17  84 CALM      30.28R
DE KALB*       CLOUDY    21  15  79 CALM      30.27R
PERU*          MOCLDY    19  17  90 CALM      30.29F
$$

ILZ005-006-012>014-019>023-181200-
NORTHEAST ILLINOIS

CITY           SKY/WX    TMP DP  RH WIND       PRES   REMARKS
CHICAGO-OHARE  PTCLDY    20  14  77 NW6       30.27S WCI  12
CHICAGO-MIDWAY CLOUDY    26  16  65 CALM      30.27F
AURORA         CLOUDY    23  15  71 CALM      30.28S
LANSING*       CLOUDY    25  17  74 CALM      30.27S
JOLIET*        CLOUDY    23  17  78 CALM      30.29S
WAUKEGAN       CLEAR     17  13  84 SW3       30.25F
DUPAGE AIRPORT CLOUDY    22  15  75 N6        30.26S WCI  14
KANKAKEE*      CLOUDY    24  18  77 CALM      30.29R
WHEELING       PTCLDY    20  14  77 W3        30.29F
MORRIS*        CLOUDY    21  20  93 CALM      30.29R
ROMEOVILLE*    CLOUDY    23  17  76 W3        30.28R
NORTHERLY ISL    N/A     25  17  72 W7          N/A  WCI  17
$$

LMZ740>746-181200-
SOUTHERN LAKE MICHIGAN

STATION/POSITION SKY/WX   TEMP    WIND        PRES    VSBY  WAVE
                          AIR SEA DIR/SP/G                  HT/PER
                          (F)     (DEG/KT/KT) (MB)    (MI)  (FT/S)
WAUKEGAN HARBOR            20      CALM  /  7   N/A
HARRISON CRIB              23     300/  8/ 10   N/A
BURNHAM HARBOR             25     270/  5/  7   N/A
CALUMET HARBOR             25     270/  3/  5 1023.9R
$$

ILZ025>027-034>036-040-047-049-050-058-095>099-181200-
WEST-CENTRAL ILLINOIS

CITY           SKY/WX    TMP DP  RH WIND       PRES   REMARKS
QUINCY         CLOUDY    26  20  77 E3        30.27S
GALESBURG*     MOCLDY    17  15  93 CALM      30.27S
MACOMB*        PTCLDY    19  18  93 CALM      30.30S
JACKSONVILLE*  CLOUDY    28  22  80 CALM      30.29R
PITTSFIELD*    CLOUDY    28  23  82 CALM      30.28F
$$

ILZ028>032-037-038-041>044-048-051>054-059>061-181200-
CENTRAL ILLINOIS

CITY           SKY/WX    TMP DP  RH WIND       PRES   REMARKS
PONTIAC        MOCLDY    18  17  93 N5        30.29F WCI  11
BLOOMINGTON    PTCLDY    22  19  88 CALM      30.27R
DECATUR        CLOUDY    23  20  88 CALM      30.28S
PEORIA         PTCLDY    20  15  81 NE3       30.28S
LACON*         PTCLDY    15  12  89 CALM      30.28F
LINCOLN*       PTCLDY    23  21  92 CALM      30.30S
SPRINGFIELD    CLOUDY    24  22  91 CALM      30.29R
TAYLORVILLE    CLOUDY    25  21  86 CALM      30.29S
$$

ILZ033-039-045-046-055>057-062-063-181200-
EAST-CENTRAL ILLINOIS

CITY           SKY/WX    TMP DP  RH WIND       PRES   REMARKS
CHAMPAIGN      CLOUDY    25  19  78 E5        30.27R WCI  19
DANVILLE*      CLOUDY    23  19  83 CALM      30.26R
RANTOUL*       PTCLDY    23  19  85 CALM      30.27S
MATTOON        CLOUDY    25  18  74 CALM      30.27R
PARIS*         CLOUDY    26  21  83 CALM      30.29R
$$

ILZ079-100>102-181200-
SOUTHWEST ILLINOIS

CITY           SKY/WX    TMP DP  RH WIND       PRES   REMARKS
ALTON          CLOUDY    28  22  79 NE3       30.29S
BELLEVILLE     MOCLDY    29  27  89 NE5       30.26F WCI  24
CAHOKIA*       CLOUDY    31  25  78 NE6       30.27F WCI  25
SPARTA*        CLOUDY    30  27  88 CALM      30.28S
$$

ILZ064>066-069>071-074>076-080>082-084>086-088>090-092>094-181200-
SOUTH-CENTRAL ILLINOIS

CITY           SKY/WX    TMP DP  RH WIND       PRES   REMARKS
CARBONDALE     CLOUDY    31  27  85 NE5       30.27S WCI  26
CAIRO*         CLOUDY    36  34  95 NE3       30.27R FOG
EFFINGHAM*     CLOUDY    26  20  78 CALM      30.30S
MARION         CLOUDY    32  28  86 CALM      30.26F
MT. VERNON     CLOUDY    28  21  74 NE3       30.28R
CENTRALIA*     CLOUDY    28  24  84 CALM      30.28R
SALEM*         CLOUDY    29  25  84 NE3       30.28F
METROPOLIS*    CLOUDY    33  33 100 CALM      30.25S FOG
$$

ILZ067-068-072-073-078-083-087-091-181200-
SOUTHEAST ILLINOIS

CITY           SKY/WX    TMP DP  RH WIND       PRES   REMARKS
LAWRENCEVILLE  CLOUDY    26  21  81 NE3       30.30R
FLORA*         CLOUDY    26  22  84 NE3       30.29F
FAIRFIELD*     CLOUDY    28  24  85 NE3       30.27F
HARRISBURG*    CLOUDY    31  28  87 NE6       30.28F WCI  25
ROBINSON*      CLOUDY    26  22  83 E3        30.31R
CARMI*         CLOUDY    31  29  90 NE3       30.28F
$$

ABBREVIATIONS USED IN REMARKS
   TC - TEMPERATURE IN CELSIUS
  WCI - WIND CHILL INDEX
   HX - HEAT INDEX
  VSB - VISIBILITY
$$




USA.gov is the U.S. government's official web portal to all federal, state and local government web resources and services.